This is the latest recevied weather packets stored in our database for station/object WD8EHT. If no packets are shown the sender has not sent any weather packets the latest 1 day(s).
| Time | Temp. | Humidity | Pressure | Rain* | Wind** | Luminosity | Snow |
|---|---|---|---|---|---|---|---|
| 1777996187 | 10° C | 88% | 1005.5 hPa | 0 mm | 0 m/s | 183 W/m² | - |
| 1777995884 | 10° C | 85% | 1005.3 hPa | 0 mm | 0.45 m/s, 13° | 182 W/m² | - |
| 1777995580 | 10° C | 85% | 1005.6 hPa | 0 mm | 0.45 m/s, 344° | 187 W/m² | - |
| 1777995278 | 10° C | 86% | 1005.7 hPa | 0 mm | 0 m/s | 170 W/m² | - |
| 1777994974 | 9.44° C | 85% | 1005.9 hPa | 0 mm | 0.45 m/s, 18° | 153 W/m² | - |
| 1777994671 | 9.44° C | 87% | 1005.7 hPa | 0 mm | 0 m/s | 166 W/m² | - |
| 1777994372 | 9.44° C | 86% | 1005.7 hPa | 0 mm | 0 m/s | 180 W/m² | - |
| 1777994068 | 10° C | 86% | 1006 hPa | 0 mm | 0.45 m/s, 344° | 140 W/m² | - |
| 1777993765 | 9.44° C | 89% | 1005.4 hPa | 0 mm | 0 m/s | 225 W/m² | - |
| 1777993462 | 9.44° C | 90% | 1005.4 hPa | 0 mm | 0 m/s | 189 W/m² | - |
| 1777993161 | 8.89° C | 90% | 1005.5 hPa | 0 mm | 0 m/s | 150 W/m² | - |
| 1777992860 | 8.89° C | 90% | 1005.6 hPa | 0 mm | 0 m/s | 95 W/m² | - |
| 1777992558 | 8.89° C | 90% | 1005.7 hPa | 0 mm | 0 m/s | 91 W/m² | - |
| 1777992256 | 8.89° C | 88% | 1005.4 hPa | 0 mm | 0 m/s | 91 W/m² | - |
| 1777991953 | 8.89° C | 90% | 1005.2 hPa | 0 mm | 0 m/s | 108 W/m² | - |
| 1777991650 | 8.89° C | 90% | 1005.2 hPa | 0 mm | 0 m/s | 66 W/m² | - |
| 1777991347 | 8.33° C | 91% | 1004.9 hPa | 1.78 mm | 0 m/s | 83 W/m² | - |
| 1777991044 | 8.33° C | 90% | 1005 hPa | 1.78 mm | 0 m/s | 70 W/m² | - |
| 1777990741 | 8.33° C | 89% | 1004.6 hPa | 1.27 mm | 0 m/s | 68 W/m² | - |
| 1777990439 | 8.33° C | 84% | 1004.4 hPa | 1.27 mm | 0 m/s | 41 W/m² | - |
| 1777990135 | 8.33° C | 84% | 1004.5 hPa | 1.78 mm | 0 m/s | 45 W/m² | - |
| 1777989832 | 8.33° C | 83% | 1004.8 hPa | 1.78 mm | 0.45 m/s, 354° | 73 W/m² | - |
| 1777989529 | 8.89° C | 82% | 1004.8 hPa | 3.05 mm | 0.45 m/s, 313° | 64 W/m² | - |
| 1777989225 | 9.44° C | 81% | 1004.6 hPa | 1.27 mm | 0 m/s | 67 W/m² | - |
| 1777988921 | 10° C | 78% | 1004.8 hPa | 0 mm | 0 m/s | 53 W/m² | - |
* Rain latest hour (hover to see other rain measurements)
** Current wind speed in m/s (hover to see current wind gust speed)